Weather History for Teterboro, NJ

Change the Weather History Date:

Monday, August 12, 2013

  Actual Average Record
Temperature  
Mean Temperature 77 °F -  
Max Temperature 84 °F 83 °F 97 °F (2005)
Min Temperature 70 °F 65 °F 57 °F (2006)
Cooling Degree Days 12    
Growing Degree Days 27 (Base 50)    
Moisture  
Dew Point 64 °F    
Average Humidity 70    
Maximum Humidity 90    
Minimum Humidity 40    
Precipitation  
Precipitation 0.01 in - - ()
Sea Level Pressure  
Sea Level Pressure 29.98 in    
Wind  
Wind Speed 3 mph (SW)    
Max Wind Speed 8 mph    
Max Gust Speed -    
Visibility 10 miles    
Events Rain    
Averages and records for this station are not official NWS values.
T = Trace of Precipitation, MM = Missing Value Source: NWS Daily Summary

Daily Weather History Graph

Daily Weather History Graph

Search for Another Location

Airport:

Trip Planner

Search our weather history database for the weather conditions in past years. The results will help you decide how hot, cold, wet, or windy it might be!

Date:

Astronomy

Aug. 12, 2013 Rise Set
Actual Time 6:03 AM EDT 7:58 PM EDT
Civil Twilight 5:33 AM EDT 8:27 PM EDT
Nautical Twilight 4:57 AM EDT 9:03 PM EDT
Astronomical Twilight 4:18 AM EDT 9:42 PM EDT
Moon 11:54 AM EDT (8/12) 10:46 PM EDT (8/12)
Length of Visible Light 14h 54m
Length of Day
13h 54m
Waxing Crescent, 31% of the Moon is Illuminated
Aug 12
Waxing Crescent
Aug 14
First Quarter
Aug 20
Full
Aug 28
Last Quarter
Sep 5
New

Hourly Weather History & Observations

Time (EDT) Temp. Heat Index Dew Point Humidity Pressure Visibility Wind Dir Wind Speed Gust Speed Precip Events Conditions
12:51 AM 72.0 °F - 64.9 °F 78% 30.03 in 10.0 mi South 5.8 mph - N/A   Overcast
1:51 AM 72.0 °F - 66.0 °F 81% 30.02 in 10.0 mi Calm Calm - N/A   Overcast
2:51 AM 72.0 °F - 66.9 °F 84% 30.01 in 10.0 mi South 3.5 mph - 0.00 in   Overcast
3:51 AM 72.0 °F - 66.9 °F 84% 30.01 in 10.0 mi WSW 3.5 mph - N/A   Overcast
4:51 AM 70.0 °F - 66.9 °F 90% 29.99 in 10.0 mi Calm Calm - N/A   Mostly Cloudy
5:51 AM 71.1 °F - 66.9 °F 87% 30.00 in 10.0 mi North 4.6 mph - N/A   Overcast
6:51 AM 70.0 °F - 66.9 °F 90% 30.01 in 10.0 mi North 3.5 mph - 0.00 in Rain Light Rain
7:51 AM 70.0 °F - 66.0 °F 87% 30.02 in 10.0 mi WNW 3.5 mph - 0.01 in   Overcast
8:51 AM 72.0 °F - 64.9 °F 78% 30.01 in 10.0 mi Calm Calm - N/A   Overcast
9:51 AM 73.0 °F - 64.9 °F 76% 30.02 in 10.0 mi North 3.5 mph - N/A   Overcast
10:51 AM 73.0 °F - 66.0 °F 79% 30.02 in 10.0 mi Calm Calm - 0.00 in Rain Light Rain
11:51 AM 75.0 °F - 61.0 °F 62% 30.00 in 10.0 mi ENE 5.8 mph - 0.00 in   Overcast
12:51 PM 78.1 °F - 57.9 °F 50% 30.00 in 10.0 mi Calm Calm - N/A   Mostly Cloudy
1:51 PM 79.0 °F - 59.0 °F 50% 29.98 in 10.0 mi Variable 4.6 mph - N/A   Scattered Clouds
2:51 PM 81.0 °F 81.1 °F 57.9 °F 45% 29.97 in 10.0 mi WSW 3.5 mph - N/A   Scattered Clouds
3:51 PM 82.0 °F 82.0 °F 57.9 °F 44% 29.96 in 10.0 mi Variable 3.5 mph - N/A   Partly Cloudy
4:51 PM 84.0 °F 83.3 °F 57.0 °F 40% 29.94 in 10.0 mi SSE 5.8 mph - N/A   Clear
5:51 PM 84.0 °F 83.5 °F 57.9 °F 41% 29.93 in 10.0 mi West 6.9 mph - N/A   Scattered Clouds
6:51 PM 80.1 °F 81.7 °F 64.0 °F 58% 29.92 in 10.0 mi South 8.1 mph - N/A   Scattered Clouds
7:51 PM 77.0 °F - 64.0 °F 64% 29.92 in 10.0 mi South 4.6 mph - N/A   Clear
8:51 PM 75.0 °F - 64.9 °F 71% 29.92 in 10.0 mi SSW 3.5 mph - N/A   Clear
9:51 PM 73.0 °F - 66.0 °F 79% 29.93 in 10.0 mi SSW 3.5 mph - N/A   Clear
10:51 PM 73.0 °F - 68.0 °F 84% 29.93 in 10.0 mi South 3.5 mph - N/A   Clear
11:51 PM 72.0 °F - 68.0 °F 87% 29.93 in 6.0 mi Calm Calm - N/A   Clear